Location: Pace/Milton
(30.6162°N, 87.1503°W)
Time: 12:25:38
(UTC-06:00)

Hubble Space Telescope - Pass Details

Date: 02 December 2021
Orbit: 535 x 538 km, 28.5° (Epoch: 21 January)

Event Time Altitude Azimuth Distance (km) Brightness Sun altitude
Exits shadow 05:49:40 - 262° (W) 1,936 3.1 -8.7°
Reaches altitude 10° 05:50:08 10° 258° (WSW) 1,773 2.9 -8.6°
Maximum altitude 05:53:40 28° 199° (SSW) 1,019 2.2 -7.9°
Drops below altitude 10° 05:57:11 10° 140° (SE) 1,772 4.5 -7.2°
Sets 05:59:40 0° 128° (SE) 2,661 6.1 -6.7°
